When you browse on this site, cookies collect data to enhance your experience and personalize the content and advertising you see.
Visit our Privacy Policy to learn more. By continuing to use the site, you agree to this use of cookies and data.
  • In Latvia
  • List of Countries
  • For 7 days
  • Water Temperature
  • Weather Map
  • Weather Widgets
  • user-avatar
    Login

    Hourly Weather Zaranj

    Today, 26 August, Monday

    Time Temperature Precipitation Wind Pressure Humidity
    00:00 +31°C° 0 mm 10 mps 713 mmHg 19%
    01:00 +29°C° 0 mm 10 mps 713 mmHg 20%
    02:00 +29°C° 0 mm 9 mps 713 mmHg 21%
    03:00 +28°C° 0 mm 8 mps 713 mmHg 22%
    04:00 +27°C° 0 mm 7 mps 713 mmHg 23%
    05:00 +27°C° 0 mm 7 mps 714 mmHg 22%
    06:00 +28°C° 0 mm 7 mps 714 mmHg 20%
    07:00 +28°C° 0 mm 7 mps 714 mmHg 19%
    08:00 +32°C° 0 mm 8 mps 715 mmHg 17%
    09:00 +34°C° 0 mm 8 mps 715 mmHg 14%
    10:00 +38°C° 0 mm 9 mps 715 mmHg 12%
    11:00 +39°C° 0 mm 8 mps 715 mmHg 10%
    12:00 +41°C° 0 mm 8 mps 714 mmHg 9%
    13:00 +43°C° 0 mm 7 mps 714 mmHg 7%
    14:00 +43°C° 0 mm 7 mps 714 mmHg 7%
    15:00 +44°C° 0 mm 6 mps 713 mmHg 7%
    16:00 +44°C° 0 mm 6 mps 713 mmHg 6%
    17:00 +41°C° 0 mm 6 mps 713 mmHg 9%
    18:00 +39°C° 0 mm 7 mps 713 mmHg 12%
    19:00 +36°C° 0 mm 7 mps 713 mmHg 15%
    20:00 +35°C° 0 mm 8 mps 713 mmHg 15%
    21:00 +34°C° 0 mm 9 mps 713 mmHg 16%
    22:00 +33°C° 0 mm 10 mps 714 mmHg 16%
    23:00 +33°C° 0 mm 10 mps 713 mmHg 16%

    Tomorrow, 27 August, Tuesday

    Time Temperature Precipitation Wind Pressure Humidity
    00:00 +32°C° 0 mm 10 mps 713 mmHg 16%
    01:00 +31°C° 0 mm 10 mps 713 mmHg 16%
    02:00 +29°C° 0 mm 10 mps 713 mmHg 16%
    03:00 +29°C° 0 mm 10 mps 713 mmHg 16%
    04:00 +28°C° 0 mm 9 mps 713 mmHg 16%
    05:00 +28°C° 0 mm 10 mps 713 mmHg 15%
    06:00 +29°C° 0 mm 10 mps 714 mmHg 14%
    07:00 +29°C° 0 mm 10 mps 714 mmHg 14%
    08:00 +32°C° 0 mm 10 mps 714 mmHg 12%
    09:00 +36°C° 0 mm 10 mps 714 mmHg 10%
    10:00 +38°C° 0 mm 10 mps 714 mmHg 9%
    11:00 +40°C° 0 mm 10 mps 714 mmHg 8%
    12:00 +43°C° 0 mm 9 mps 714 mmHg 7%
    13:00 +45°C° 0 mm 9 mps 713 mmHg 6%
    14:00 +44°C° 0 mm 9 mps 713 mmHg 6%
    15:00 +44°C° 0 mm 10 mps 712 mmHg 6%
    16:00 +44°C° 0 mm 11 mps 712 mmHg 6%
    17:00 +42°C° 0 mm 10 mps 712 mmHg 8%
    18:00 +39°C° 0 mm 9 mps 712 mmHg 10%
    19:00 +37°C° 0 mm 9 mps 712 mmHg 11%
    20:00 +35°C° 0 mm 9 mps 712 mmHg 12%
    21:00 +34°C° 0 mm 10 mps 712 mmHg 13%
    22:00 +33°C° 0 mm 10 mps 713 mmHg 13%
    23:00 +32°C° 0 mm 10 mps 712 mmHg 15%

    Day after tomorrow, 28 August, Wednesday

    Time Temperature Precipitation Wind Pressure Humidity
    00:00 +31°C° 0 mm 9 mps 712 mmHg 16%
    01:00 +31°C° 0 mm 9 mps 712 mmHg 17%
    02:00 +29°C° 0 mm 8 mps 712 mmHg 18%
    03:00 +28°C° 0 mm 7 mps 712 mmHg 20%
    04:00 +27°C° 0 mm 7 mps 712 mmHg 21%
    05:00 +28°C° 0 mm 7 mps 712 mmHg 20%
    06:00 +28°C° 0 mm 7 mps 713 mmHg 20%
    07:00 +29°C° 0 mm 8 mps 713 mmHg 19%
    08:00 +32°C° 0 mm 7 mps 714 mmHg 16%
    09:00 +35°C° 0 mm 7 mps 714 mmHg 13%
    10:00 +38°C° 0 mm 7 mps 714 mmHg 10%
    11:00 +40°C° 0 mm 6 mps 714 mmHg 9%
    12:00 +42°C° 0 mm 6 mps 713 mmHg 7%
    13:00 +45°C° 0 mm 5 mps 713 mmHg 6%
    14:00 +45°C° 0 mm 5 mps 713 mmHg 6%
    15:00 +46°C° 0 mm 5 mps 712 mmHg 5%
    16:00 +46°C° 0 mm 5 mps 712 mmHg 5%
    17:00 +43°C° 0 mm 5 mps 712 mmHg 8%
    18:00 +40°C° 0 mm 6 mps 712 mmHg 11%
    19:00 +38°C° 0 mm 6 mps 712 mmHg 13%
    20:00 +38°C° 0 mm 7 mps 712 mmHg 14%
    21:00 +37°C° 0 mm 8 mps 712 mmHg 15%
    22:00 +35°C° 0 mm 9 mps 713 mmHg 15%
    23:00 +36°C° 0 mm 10 mps 713 mmHg 16%

    29 August, Thursday

    Time Temperature Precipitation Wind Pressure Humidity
    00:00 +34°C° 0 mm 10 mps 712 mmHg 18%
    01:00 +33°C° 0 mm 10 mps 712 mmHg 19%
    02:00 +32°C° 0 mm 9 mps 712 mmHg 20%
    03:00 +32°C° 0 mm 9 mps 712 mmHg 20%
    04:00 +31°C° 0 mm 8 mps 712 mmHg 21%
    05:00 +31°C° 0 mm 8 mps 713 mmHg 20%
    06:00 +32°C° 0 mm 9 mps 713 mmHg 20%
    07:00 +32°C° 0 mm 9 mps 714 mmHg 19%
    08:00 +35°C° 0 mm 9 mps 714 mmHg 16%
    09:00 +38°C° 0 mm 9 mps 714 mmHg 13%
    10:00 +41°C° 0 mm 8 mps 714 mmHg 10%
    11:00 +43°C° 0 mm 8 mps 714 mmHg 8%
    12:00 +45°C° 0 mm 7 mps 713 mmHg 7%
    13:00 +47°C° 0 mm 7 mps 713 mmHg 5%
    14:00 +47°C° 0 mm 7 mps 712 mmHg 5%
    15:00 +49°C° 0 mm 7 mps 712 mmHg 5%
    16:00 +49°C° 0 mm 7 mps 711 mmHg 4%
    17:00 +46°C° 0 mm 8 mps 711 mmHg 6%
    18:00 +44°C° 0 mm 9 mps 711 mmHg 9%
    19:00 +42°C° 0 mm 10 mps 711 mmHg 11%
    20:00 +40°C° 0 mm 10 mps 711 mmHg 12%
    21:00 +39°C° 0 mm 10 mps 712 mmHg 14%
    22:00 +37°C° 0 mm 11 mps 712 mmHg 15%
    23:00 +37°C° 0 mm 11 mps 712 mmHg 17%

    30 August, Friday

    Time Temperature Precipitation Wind Pressure Humidity
    00:00 +36°C° 0 mm 11 mps 712 mmHg 18%
    01:00 +34°C° 0 mm 11 mps 711 mmHg 20%
    02:00 +33°C° 0 mm 12 mps 711 mmHg 22%
    03:00 +33°C° 0 mm 12 mps 711 mmHg 23%
    04:00 +32°C° 0 mm 13 mps 711 mmHg 25%
    05:00 +32°C° 0 mm 13 mps 711 mmHg 24%
    06:00 +32°C° 0 mm 14 mps 712 mmHg 24%
    07:00 +32°C° 0 mm 14 mps 712 mmHg 23%
    08:00 +34°C° 0 mm 15 mps 712 mmHg 20%
    09:00 +37°C° 0 mm 15 mps 713 mmHg 17%
    10:00 +40°C° 0 mm 15 mps 713 mmHg 14%
    11:00 +42°C° 0 mm 14 mps 712 mmHg 12%
    12:00 +45°C° 0 mm 14 mps 712 mmHg 10%
    13:00 +47°C° 0 mm 13 mps 712 mmHg 8%
    14:00 +47°C° 0 mm 13 mps 711 mmHg 8%
    15:00 +47°C° 0 mm 13 mps 711 mmHg 8%
    16:00 +47°C° 0 mm 14 mps 710 mmHg 7%
    17:00 +45°C° 0 mm 13 mps 710 mmHg 10%
    18:00 +42°C° 0 mm 12 mps 710 mmHg 12%
    19:00 +39°C° 0 mm 11 mps 710 mmHg 15%
    20:00 +38°C° 0 mm 11 mps 710 mmHg 16%
    21:00 +37°C° 0 mm 11 mps 711 mmHg 17%
    22:00 +36°C° 0 mm 11 mps 711 mmHg 18%
    23:00 +34°C° 0 mm 12 mps 710 mmHg 19%

    31 August, Saturday

    Time Temperature Precipitation Wind Pressure Humidity
    00:00 +33°C° 0 mm 12 mps 710 mmHg 20%
    01:00 +33°C° 0 mm 12 mps 710 mmHg 20%
    02:00 +32°C° 0 mm 12 mps 710 mmHg 22%
    03:00 +31°C° 0 mm 12 mps 710 mmHg 23%
    04:00 +31°C° 0 mm 12 mps 709 mmHg 25%
    05:00 +31°C° 0 mm 12 mps 710 mmHg 25%
    06:00 +31°C° 0 mm 13 mps 710 mmHg 25%
    07:00 +31°C° 0 mm 13 mps 711 mmHg 24%
    08:00 +34°C° 0 mm 13 mps 711 mmHg 21%
    09:00 +37°C° 0 mm 12 mps 711 mmHg 17%
    10:00 +41°C° 0 mm 11 mps 712 mmHg 13%
    11:00 +43°C° 0 mm 10 mps 711 mmHg 11%
    12:00 +45°C° 0 mm 10 mps 711 mmHg 9%
    13:00 +48°C° 0 mm 9 mps 710 mmHg 6%
    14:00 +48°C° 0 mm 9 mps 710 mmHg 6%
    15:00 +49°C° 0 mm 10 mps 710 mmHg 6%
    16:00 +49°C° 0 mm 11 mps 709 mmHg 6%
    17:00 +47°C° 0 mm 11 mps 709 mmHg 8%
    18:00 +43°C° 0 mm 10 mps 709 mmHg 10%
    19:00 +40°C° 0 mm 10 mps 709 mmHg 13%
    20:00 +39°C° 0 mm 10 mps 709 mmHg 14%
    21:00 +38°C° 0 mm 11 mps 710 mmHg 15%
    22:00 +37°C° 0 mm 11 mps 710 mmHg 17%
    23:00 +36°C° 0 mm 11 mps 710 mmHg 18%
    Show more